{"data":{"norad_id":63749,"epoch":"2026-05-25T04:23:33.424800Z","epoch_age_seconds":66322,"freshness":"FRESH","line1":"1 63749U 25088AB  26145.18302575 -.00114785  00000+0 -14330-1 0  9990","line2":"2 63749  51.8979 133.7240 0001413 344.9411  15.1511 14.82622625 59652","mean_motion":14.82622625,"eccentricity":0.0001413,"inclination_deg":51.8979,"raan_deg":133.724,"arg_perigee_deg":344.9411,"mean_anomaly_deg":15.1511,"bstar":-0.01433,"rev_number":5965,"period_min":97.125187199946,"perigee_km":620.06900135681,"apogee_km":622.0469738603,"semimajor_km":6999.1949876086,"source":"CELESTRAK","updated_at":"2026-05-25T13:38:03.931788Z"}}